www.pogodaiklimat.ru

Погода и климат >> Архив погоды >> Венгрия >> Порозло


ПОГОДА в Порозло

  • Прогноз погоды в Порозло
  • Монитор погоды в Порозло

АРХИВ ПОГОДЫ в Порозло

Время (UTC), дата Ветер
(напр.,м/с)
 
Видим.   Явления Облачность Т
(С)
Тd
(С)
f
(%)
Тe
(С)
Тes
(С)
Комфортность P
(гПа)
Po
(гПа)
Тmin
(С)
Tmax
(С)
R
(мм)
R24
(мм)
S
(см)
01 12.08 СВ 2 н/о н/о +21.1 +18.5 85 +25 +25 комфорт 1015.1 1004.5
02 12.08 СВ 2 н/о н/о +20.7 +18.3 86 +25 +25 комфорт 1015.0 1004.4
03 12.08 СВ 2 н/о н/о +20.2 +18.0 87 +24 +24 комфорт 1014.9 1004.3
04 12.08 СВ 2 н/о н/о +20.0 +17.6 86 +24 +24 комфорт 1015.0 1004.4
05 12.08 СВ 3 н/о н/о +21.5 +18.3 82 +26 +26 душно 1015.1 1004.5
06 12.08 В 2 н/о н/о +23.8 +19.5 77 +29 +29 душно 1015.1 1004.6 +19.9
07 12.08 В 2 н/о н/о +25.9 +20.5 72 +32 +32 очень
душно
1015.0 1004.6
08 12.08 В 2 н/о н/о +27.7 +20.5 65 +34 +34 очень
душно
1015.0 1004.6
09 12.08 ЮВ 2 н/о н/о +30.0 +21.1 59 +38 +38 очень
душно
1014.7 1004.4
10 12.08 ЮВ 2 н/о н/о +31.8 +20.1 50 +38 +38 очень
душно
1014.3 1004.1
11 12.08 ЮВ 2 н/о н/о +33.1 +19.9 46 +39 +39 очень
душно
1013.7 1003.5
12 12.08 Ю 3 н/о н/о +34.3 +18.8 40 +39 +39 очень
душно
1013.1 1003.0
13 12.08 Ю 3 н/о н/о +34.0 +18.1 39 +38 +38 очень
душно
1012.7 1002.6
14 12.08 Ю 3 н/о н/о +34.7 +18.3 38 +39 +39 очень
душно
1012.2 1002.1
15 12.08 Ю 3 н/о н/о +35.0 +19.4 40 +40 +40 очень
душно
1011.7 1001.6
16 12.08 Ю 2 н/о н/о +34.3 +19.9 43 +40 +40 очень
душно
1011.1 1001.0
17 12.08 Ю 2 н/о н/о +33.0 +20.9 49 +40 +40 очень
душно
1011.0 1000.8
18 12.08 ЮВ 1 н/о н/о +30.4 +22.3 62 +39 +39 очень
душно
1010.9 1000.7 +35.2
19 12.08 ЮВ 2 н/о н/о +29.5 +20.6 59 +37 +37 очень
душно
1011.2 1000.9
20 12.08 ЮВ 2 н/о н/о +28.3 +19.0 57 +34 +34 очень
душно
1011.3 1001.0
21 12.08 ЮЗ 1 н/о н/о +27.2 +19.3 62 +33 +33 очень
душно
1011.6 1001.2
22 12.08 ЮВ 1 н/о н/о +26.1 +20.4 71 +32 +32 очень
душно
1011.5 1001.1
23 12.08 ЮВ 3 н/о н/о +25.2 +18.9 68 +30 +30 душно 1011.2 1000.8
00 13.08 Ю 3 н/о н/о +25.4 +18.8 67 +30 +30 душно 1010.8 1000.4
01 13.08 З 1 н/о н/о +23.6 +18.3 72 +28 +28 душно 1010.9 1000.4
02 13.08 СЗ 1 н/о н/о +20.8 +17.8 83 +26 +26 душно 1011.5 1000.9
03 13.08 ЮВ 2 н/о н/о +21.6 +18.2 81 +26 +26 душно 1011.4 1000.9
04 13.08 Ю 2 н/о н/о +23.2 +18.3 74 +29 +29 душно 1011.3 1000.8
05 13.08 ЮЗ 1 н/о н/о +23.1 +18.6 76 +29 +29 очень
душно
1011.7 1001.2
06 13.08 ЮВ 2 н/о н/о +25.3 +20.1 73 +31 +31 очень
душно
1011.8 1001.4 +20.6
07 13.08 ЮВ 3 н/о н/о +26.9 +21.0 70 +34 +34 очень
душно
1012.0 1001.6
08 13.08 ЮЗ 2 н/о н/о +29.3 +21.8 64 +38 +38 очень
душно
1012.0 1001.7
09 13.08 З 3 н/о н/о +31.2 +20.8 54 +38 +38 очень
душно
1011.9 1001.7
10 13.08 ЮВ 3 н/о н/о +31.6 +21.5 55 +40 +40 очень
душно
1011.6 1001.4
11 13.08 ЮВ 3 н/о н/о +32.6 +20.5 49 +39 +39 очень
душно
1011.4 1001.2
12 13.08 Ю 4 н/о н/о +33.2 +18.2 41 +38 +38 очень
душно
1010.6 1000.5
13 13.08 Ю 4
{7}
н/о н/о +33.5 +19.6 44 +39 +39 очень
душно
1010.2 1000.1
14 13.08 С 6
{15}
н/о н/о +30.0 +19.7 54 +36 +36 очень
душно
1010.9 1000.7
15 13.08 СВ 6
{11}
н/о н/о +27.8 +19.6 61 +34 +34 очень
душно
1011.3 1001.0
16 13.08 СВ 4
{11}
н/о н/о +25.8 +19.4 68 +31 +31 очень
душно
1011.9 1001.5
17 13.08 СВ 5
{10}
н/о н/о +23.1 +19.1 78 +29 +29 очень
душно
1012.1 1001.6
18 13.08 С 4
{9}
н/о н/о +22.0 +18.0 78 +27 +27 душно 1012.3 1001.8 +34.3
19 13.08 СВ 4
{8}
н/о н/о +21.6 +17.8 79 +26 +26 душно 1012.5 1001.9
20 13.08 СВ 4
{8}
н/о н/о +20.8 +17.6 82 +25 +25 комфорт 1012.2 1001.6
21 13.08 СВ 4
{9}
н/о н/о +20.4 +17.0 81 +24 +24 комфорт 1011.9 1001.3
22 13.08 С 3
{9}
н/о н/о +19.7 +17.1 85 +22 +22 комфорт 1012.1 1001.5
23 13.08 СВ 4
{7}
н/о н/о +20.5 +17.5 83 +24 +24 комфорт 1011.0 1000.4
00 14.08 З 3
{16}
н/о н/о +19.6 +19.6 100 +23 +23 комфорт 1012.4 1001.8 6
01 14.08 СВ 3
{9}
н/о н/о +19.3 +19.3 100 +22 +22 комфорт 1009.7 999.1
02 14.08 СВ 2 н/о н/о +18.9 +18.9 100 +21 +21 комфорт 1009.7 999.1
03 14.08 СЗ 2 н/о н/о +19.2 +19.2 100 +22 +22 комфорт 1011.2 1000.6
04 14.08 СВ 2 н/о н/о +18.8 +18.8 100 +21 +21 комфорт 1010.6 1000.0
05 14.08 СВ 3 н/о н/о +18.8 +18.8 100 +20 +20 1009.8 999.2
06 14.08 СВ 3 н/о н/о +17.5 +17.5 100 +17 +17 1011.2 1000.5 +17.5 27
07 14.08 СВ 2 н/о н/о +17.5 +17.5 100 +18 +18 1011.4 1000.7
08 14.08 З 4 н/о н/о +18.0 +18.0 100 +18 +18 1012.3 1001.6
09 14.08 СЗ 3 н/о н/о +17.7 +17.7 100 +18 +18 1012.3 1001.6
10 14.08 С 2 н/о н/о +18.2 +18.2 100 +19 +19 1012.2 1001.5
11 14.08 С 1 н/о н/о +19.6 +17.7 89 +23 +23 комфорт 1012.6 1002.0
12 14.08 СЗ 4
{7}
н/о н/о +18.6 +18.1 97 +20 +20 1013.4 1002.7 24
13 14.08 СЗ 3 н/о н/о +18.0 +18.0 100 +18 +18 1013.9 1003.2
14 14.08 СВ 3
{7}
н/о н/о +17.2 +17.0 99 +17 +17 1014.7 1004.0
15 14.08 С 4
{7}
н/о н/о +16.7 +16.4 98 +16 +16 1015.1 1004.3
16 14.08 С 3
{7}
н/о н/о +16.8 +14.8 88 +17 +17 1015.4 1004.6
17 14.08 С 3 н/о н/о +16.7 +14.0 84 +16 +16 1015.9 1005.1
18 14.08 СВ 2 н/о н/о +16.4 +13.9 85 +17 +17 1016.5 1005.7 +19.8 17
19 14.08 В 1 н/о н/о +15.9 +14.3 90 +17 +17 1016.8 1006.0
20 14.08 С 1 н/о н/о +16.0 +14.5 91 +17 +17 1017.0 1006.2
21 14.08 С 1 н/о н/о +14.5 +14.0 97 +15 +15 1017.2 1006.3
22 14.08 СЗ 2 н/о н/о +13.7 +12.9 95 +13 +13 1017.0 1006.1
23 14.08 СЗ 2 н/о н/о +13.8 +13.8 100 +13 +13 1017.1 1006.2
00 15.08 СЗ 1 н/о н/о +13.6 +13.6 100 +14 +14 1016.8 1005.9
01 15.08 С 1 н/о н/о +11.8 +11.8 100 +11 +11 1016.9 1005.9
02 15.08 СЗ 1 н/о н/о +11.0 +11.0 100 +11 +11 1016.6 1005.6
03 15.08 СЗ 2 н/о н/о +10.7 +10.7 100 +9 +9 1016.5 1005.5
04 15.08 СЗ 3 н/о н/о +11.0 +11.0 100 +9 +9 1016.4 1005.4
05 15.08 СЗ 2 н/о н/о +13.4 +12.0 91 +13 +13 1016.5 1005.6
06 15.08 С 2 н/о н/о +15.9 +11.5 75 +16 +16 1016.6 1005.8 +10.4
07 15.08 С 4
{7}
н/о н/о +18.5 +11.6 64 +19 +19 1016.5 1005.8
08 15.08 СВ 4
{10}
н/о н/о +19.9 +11.1 57 +21 +21 комфорт 1016.4 1005.7
09 15.08 СВ 4
{9}
н/о н/о +20.1 +11.1 56 +22 +22 комфорт 1016.3 1005.7
10 15.08 С 4
{8}
н/о н/о +21.6 +10.7 50 +23 +23 комфорт 1015.7 1005.1
11 15.08 С 4
{9}
н/о н/о +22.4 +10.2 46 +24 +24 комфорт 1015.6 1005.0
12 15.08 С 4
{9}
н/о н/о +23.1 +10.5 45 +25 +25 комфорт 1015.2 1004.7
13 15.08 С 4
{8}
н/о н/о +23.4 +8.7 39 +25 +25 комфорт 1014.9 1004.4
14 15.08 С 3
{7}
н/о н/о +23.6 +8.5 38 +24 +24 комфорт 1014.7 1004.2
15 15.08 С 3
{7}
н/о н/о +23.7 +8.6 38 +24 +24 комфорт 1014.5 1004.0
16 15.08 С 2 н/о н/о +23.1 +8.4 39 +24 +24 комфорт 1014.4 1003.9
17 15.08 С 1 н/о н/о +21.6 +10.7 50 +23 +23 комфорт 1014.7 1004.1
18 15.08 СВ 2 н/о н/о +19.5 +11.0 58 +21 +21 комфорт 1015.2 1004.5 +24.0
19 15.08 В 2 н/о н/о +18.3 +13.6 74 +19 +19 1015.6 1004.9
20 15.08 СВ 1 н/о н/о +17.9 +14.0 78 +19 +19 1015.9 1005.2
21 15.08 штиль 0 н/о н/о +15.3 +14.0 92 +15 +15 1016.1 1005.3
22 15.08 штиль 0 н/о н/о +15.1 +14.6 97 +15 +15 1016.1 1005.3
23 15.08 С 1 н/о н/о +14.4 +13.6 95 +15 +15 1016.3 1005.4
00 16.08 С 1 н/о н/о +14.0 +13.5 97 +14 +14 1016.3 1005.4
01 16.08 В 1 н/о н/о +13.6 +13.1 97 +14 +14 1016.1 1005.2
02 16.08 штиль 0 н/о н/о +12.3 +12.1 99 +12 +12 1016.2 1005.3
03 16.08 СВ 1 н/о н/о +12.4 +12.4 100 +12 +12 1016.2 1005.3
04 16.08 СВ 1 н/о н/о +12.4 +12.4 100 +12 +12 1016.3 1005.4
05 16.08 СВ 1 н/о н/о +14.2 +13.1 93 +14 +14 1016.3 1005.4
06 16.08 СВ 2 н/о н/о +16.3 +13.8 85 +16 +16 1016.4 1005.6 +12.2
07 16.08 ЮВ 1 н/о н/о +19.2 +14.0 72 +22 +22 комфорт 1016.4 1005.7
08 16.08 В 2 н/о н/о +20.7 +14.6 68 +24 +24 комфорт 1016.3 1005.7
09 16.08 Ю 2 н/о н/о +21.8 +13.4 59 +25 +25 комфорт 1016.2 1005.6
10 16.08 ЮВ 2 н/о н/о +23.1 +12.4 51 +26 +26 жарко 1015.9 1005.4
11 16.08 ЮВ 3 н/о н/о +24.1 +13.0 50 +26 +26 жарко 1015.6 1005.1
12 16.08 ЮВ 2 н/о н/о +24.9 +12.5 46 +27 +27 жарко 1015.1 1004.6
13 16.08 Ю 2 н/о н/о +24.4 +11.7 45 +26 +26 жарко 1014.9 1004.4
14 16.08 Ю 1 н/о н/о +24.2 +12.2 47 +26 +26 жарко 1014.8 1004.3
15 16.08 ЮВ 1 н/о н/о +23.5 +14.8 58 +26 +26 жарко 1014.5 1004.0
16 16.08 Ю 1 н/о н/о +23.1 +15.2 61 +27 +27 душно 1014.7 1004.2
17 16.08 З 1 н/о н/о +22.2 +14.8 63 +26 +26 душно 1015.1 1004.5
18 16.08 В 1 н/о н/о +21.2 +15.7 71 +24 +24 комфорт 1015.4 1004.8 +25.3
19 16.08 ЮЗ 1 н/о н/о +19.4 +16.1 81 +22 +22 комфорт 1015.7 1005.0
20 16.08 ЮЗ 1 н/о н/о +17.4 +15.9 91 +18 +18 1016.0 1005.3
21 16.08 штиль 0 н/о н/о +16.9 +15.8 93 +17 +17 1016.5 1005.7
22 16.08 ЮЗ 1 н/о н/о +16.4 +15.9 97 +17 +17 1016.4 1005.6
23 16.08 штиль 0 н/о н/о +15.0 +14.7 98 +15 +15 1016.2 1005.4
00 17.08 штиль 0 н/о н/о +15.1 +15.1 100 +15 +15 1016.0 1005.2
01 17.08 СВ 2 н/о н/о +14.8 +14.8 100 +14 +14 1016.1 1005.3
02 17.08 С 2 н/о н/о +13.9 +13.9 100 +13 +13 1016.2 1005.3
03 17.08 СВ 2 н/о н/о +14.4 +14.4 100 +14 +14 1016.3 1005.4
04 17.08 СВ 1 н/о н/о +14.0 +14.0 100 +14 +14 1016.6 1005.7
05 17.08 СВ 2 н/о н/о +15.7 +15.2 97 +16 +16 1016.9 1006.1
06 17.08 В 3 н/о н/о +17.9 +14.2 79 +18 +18 1017.1 1006.4 +12.9
07 17.08 В 3 н/о н/о +19.8 +14.4 71 +22 +22 комфорт 1017.2 1006.5
08 17.08 В 2 н/о н/о +21.3 +15.2 68 +24 +24 комфорт 1017.1 1006.5
09 17.08 В 2 н/о н/о +22.9 +15.2 62 +27 +27 душно 1017.1 1006.5
10 17.08 ЮВ 2 н/о н/о +24.1 +14.8 56 +27 +27 жарко 1016.8 1006.3
11 17.08 Ю 2 н/о н/о +25.1 +13.3 48 +27 +27 жарко 1016.5 1006.0
12 17.08 Ю 2 н/о н/о +25.5 +13.0 46 +27 +27 жарко 1016.1 1005.6
13 17.08 Ю 2 н/о н/о +26.0 +14.1 48 +28 +28 жарко 1015.5 1005.1
14 17.08 ЮВ 2 н/о н/о +25.8 +14.6 50 +28 +28 жарко 1015.3 1004.9
15 17.08 Ю 2 н/о н/о +25.1 +14.9 53 +28 +28 жарко 1015.2 1004.7
16 17.08 З 2 н/о н/о +25.3 +13.8 49 +28 +28 жарко 1015.1 1004.6
17 17.08 З 2 н/о н/о +23.7 +14.7 57 +26 +26 жарко 1015.2 1004.7
18 17.08 З 2 н/о н/о +20.7 +13.4 63 +24 +24 комфорт 1015.5 1004.9 +26.4
19 17.08 ЮЗ 1 н/о н/о +19.1 +14.6 75 +22 +22 комфорт 1015.7 1005.0
20 17.08 ЮЗ 1 н/о н/о +17.7 +14.6 82 +19 +19 1015.8 1005.1
21 17.08 ЮЗ 1 н/о н/о +16.7 +14.2 85 +18 +18 1015.9 1005.1
22 17.08 Ю 1 н/о н/о +16.6 +13.9 84 +17 +17 1015.9 1005.1
23 17.08 С 1 н/о н/о +15.7 +13.5 87 +16 +16 1016.3 1005.5
00 18.08 З 1 н/о н/о +14.4 +13.8 96 +15 +15 1016.0 1005.1
01 18.08 З 1 н/о н/о +13.9 +13.6 98 +14 +14 1015.9 1005.0
02 18.08 З 1 н/о н/о +13.3 +13.0 98 +13 +13 1015.7 1004.8
03 18.08 ЮЗ 1 н/о н/о +14.4 +14.4 100 +15 +15 1016.1 1005.2
04 18.08 штиль 0 н/о н/о +15.5 +14.9 96 +15 +15 1016.3 1005.5
05 18.08 Ю 1 н/о н/о +17.3 +16.0 92 +18 +18 1016.1 1005.4
06 18.08 Ю 1 н/о н/о +19.7 +16.7 83 +23 +23 комфорт 1016.2 1005.5 +13.1
07 18.08 ЮЗ 2 н/о н/о +21.2 +15.1 68 +24 +24 комфорт 1016.4 1005.8
08 18.08 ЮЗ 3 н/о н/о +23.2 +14.5 58 +27 +27 душно 1016.3 1005.8
09 18.08 Ю 3 н/о н/о +24.6 +15.0 55 +27 +27 жарко 1016.3 1005.8
10 18.08 Ю 4 н/о н/о +26.3 +15.4 51 +29 +29 жарко 1015.8 1005.4
11 18.08 Ю 4
{7}
н/о н/о +26.6 +14.4 47 +29 +29 жарко 1015.6 1005.2
12 18.08 Ю 4
{7}
н/о н/о +27.6 +13.5 42 +29 +29 жарко 1015.4 1005.0
13 18.08 Ю 4
{8}
н/о н/о +27.8 +13.7 42 +30 +30 жарко 1015.3 1004.9
14 18.08 Ю 4
{7}
н/о н/о +28.4 +13.5 40 +30 +30 жарко 1014.8 1004.5
15 18.08 Ю 4
{7}
н/о н/о +28.5 +14.0 41 +30 +30 жарко 1014.7 1004.4
16 18.08 Ю 2 н/о н/о +28.4 +15.0 44 +31 +31 душно 1014.4 1004.1
17 18.08 Ю 1 н/о н/о +27.4 +16.1 50 +31 +31 душно 1014.4 1004.0
18 18.08 ЮВ 1 н/о н/о +24.6 +17.3 64 +29 +29 душно 1014.6 1004.1 +28.7
19 18.08 В 1 н/о н/о +22.6 +16.9 70 +27 +27 душно 1015.0 1004.5
20 18.08 Ю 1 н/о н/о +20.9 +17.3 80 +26 +26 душно 1015.3 1004.7
21 18.08 Ю 2 н/о н/о +20.4 +16.4 78 +24 +24 комфорт 1015.3 1004.7
22 18.08 С 1 н/о н/о +17.9 +16.2 90 +19 +19 1015.5 1004.8
23 18.08 ЮЗ 1 н/о н/о +17.1 +15.4 90 +18 +18 1015.7 1004.9
00 19.08 В 1 н/о н/о +16.8 +16.0 95 +18 +18 1015.8 1005.0

 

Местоположение метеостанции Порозло (Венгрия): широта 47.65 долгота 20.63 высота над уровнем моря 92 м.

В архиве по умолчанию представлена погода в Порозло за последнюю неделю. Архивные данные за месяц целиком и за предыдущие месяцы, начиная с января 2011 года, Вы можете получить, выбрав интересующий диапазон дат из раскрывающегося списка и нажав кнопку "Ввод!".


*Определитесь, кто Вы:
робот инопланетянин человек

Внимание! Время в таблицах - всемирное. Для получения местного времени необходимо прибавить поправку, которая равна 1 ч.

Смотрите также архив погоды в соседних городах и на ближайших метеорологических станциях:

Погода в Эгере (Венгрия) (34 км)
Погода в Мишкольце (Венгрия) (51 км)
Погода на Кекеше (Венгрия) (52 км)
Погода в Сольноке (Венгрия) (66 км)
Погода в Дебрецене (Венгрия) (75 км)
Погода в Йосвафо (Венгрия) (93 км)
Погода в Сечене (Польша) (98 км)
Погода в Ньиредьхазе (Венгрия) (100 км)
Погода в Лученце (Словакия) (101 км)
Погода в Кечкемете (Венгрия) (105 км)

Пояснения к столбцам:

Ветер - указаны скорость ветра в м/с - средняя за 10 мин, порывы в срок и между сроками (в фигурных скобках) и направление, откуда дует ветер: С - северный, СВ - северо-восточный, В - восточный, ЮВ - юго-восточный, Ю - южный, ЮЗ - юго-западный, З - западный, СЗ - северо-западный.
Видимость - горизонтальная дальность видимости в метрах или километрах. При видимости от 1 до 10 км при отсутствии осадков обычно наблюдается дымка, при ухудшении видимости до 1 км и менее - туман. В сухую погоду видимость может ухудшаться дымом, пылью или мглою.
Явления - указаны атмосферные явления, наблюдавшиеся в срок или в последний час перед сроком; фигурными скобками обозначены явления, наблюдавшиеся между сроками (за 1-3 часа до срока); квадратными скобками обозначены град или гололедные отложения с указанием их диаметра в мм.
Облачность - указаны через наклонную черту общая и нижняя облачность в баллах и высота нижней границы облаков в метрах; квадратными скобками обозначены формы облаков: Ci - перистые, Cs - перисто-слоистые, Cc - перисто-кучевые, Ac - высококучевые, As - высокослоистые, Sc - слоисто-кучевые, Ns - слоисто-дождевые, Cu - кучевые, Cb - кучево-дождевые. Подробнее классификацию облаков см. в Атласе облаков (PDF).
T - Температура воздуха - температура, измеренная на высоте 2 м над землей.
Td - Температура точки росы - температура, при понижении до которой содержащийся в воздухе водяной пар достигнет насыщения.
f - Относительная влажность воздуха - влажноcть воздуха, измеренная на высоте 2 м над землей.
Te - Эффективная температура - температура, которую ощущает одетый по сезону человек в тени. Характеристика душности погоды. При расчете учитывается влияние влажности воздуха и скорости ветра на теплоощущения человека.
Tes - Эффективная температура на солнце - температура, которую ощущает человек, с поправкой на солнечный нагрев. Характеристика знойности погоды. Зависит от высоты солнца над горизонтом, облачности и скорости ветра. Ночью, в пасмурную погоду, а также при ветре 12 м/с и более поправка равна нулю.
P - Атмосферное давление - приведенное к уровню моря атмосферное давление.
Po - Атмосферное давление - измеренное на уровне метеостанции атмосферное давление.
Tmin - Минимальная температура - минимум температуры воздуха на высоте 2 м над землей.
Tmax - Максимальная температура - максимум температуры воздуха на высоте 2 м над землей.
R - Количество осадков - Количество выпавших осадков за период времени, мм. При наведении курсора мыши на число - период времени, за который выпало указанное количество осадков.
R24 - Количество осадков - Количество выпавших осадков за 24 часа, мм.
S - Снежный покров - Высота снежного покрова, см. При наведении курсора мыши на число - состояние снежного покрова и степень покрытия местности в баллах.